User: anonymous   Login
Location: Beuerbach
(48.1459°N, 10.9174°E)
Time: 21:08:27
(UTC+00:00)
Language:

Cosmos 2322 Rocket - Orbit

View from above orbital plane
View from above orbital plane
View from above satellite
View from above satellite

Ground track
Ground track

The orbit data is extracted from the following two-line orbital elements,

1 23705U 95058B   24206.42302522  .00000388  00000-0  22341-3 0  9992
2 23705  71.0234 345.6923 0014394 299.5563  60.4125 14.15354413483901
Epoch (UTC): 24 July 2024 10:09:09
Eccentricity: 0.0014394
inclination: 71.0234°
perigee height: 831 km
apogee height: 851 km
right ascension of ascending node: 345.6923°
argument of perigee: 299.5563°
revolutions per day: 14.15354413
mean anomaly at epoch: 60.4125°
orbit number at epoch: 48390

The dashed part of the orbit path shows where the satellite is in the earth's shadow,  

DLR